Вернуться в каталог

STEP 2

АктивенНаукаPO
NORAD 23105·PAYLOAD·🇺🇸 United States

Запущен May 19, 1994 с Vandenberg Space Force Base

Loading…

Ближайшие Пролёты (ближайшие 24 часа)

TLE

СвежийSource: Space-Track

Эпоха: Sep 14, 2026, 12:07 UTC

1 23105U 94029A   26257.50552019  .00001743  00000-0  16304-3 0  9996
2 23105  81.9344  82.6514 0081045 326.4029  33.2063 14.91088315733192

Отслеживайте STEP 2 в реальном времени с AllMySat

Download on the App Store